Probability
0 0 0 0 0 0 0 0 0 0 0 0 0 0 0 0 0 0 0 0 0 0 0 0 0 0 0 0 0 0 0 0 0 0 0 0 0 0 0 0 0 0 0
0 0 0 0 0 0 0 0 0 0 0 0 0 0 0 0 0 0 0 0 0 0 0 0 0 0 0 0 0 0 0 0 0 0 0 0 0 0 0 0 0 0 0
0 0 0 0 0 0 0 0 0 0 0 0 0 0 0 0 0 0 0 0 0 0 0 0 0 0 0 0 0 0 0 0 0 0 0 0 0 0 0 0 0 0 0
0 0 0 0 0 0 0 0 0 0 0 0 0 0 0 0 0 0 0 0 0 0 0 0 0 0 0 0 0 0 0 0 0 0 0 0 0 0 0 0 0 0 0
0 0 0 0 0 0 0 0 0 0 0 0 0 0 0 0 0 0 0 0 0 0 0 0 0 0 0 0 0 0 0 0 0 0 0 0 0 0 0 0 0 0 0
0 0 0 0 0 0 0 0 0 0 0 0 0 0 0 0 0 0 0 0 0 0 0 0 0 0 0 0 0 0 0 0 0 0 0 0 0 0 0 0 0 0 0
0 0 0 0 0 0 0 0 0 0 0 0 0 0 0 0 0 0 0 0 0 0 0 0 0 0 0 0 0 0 0 0 0 0 0 0 0 0 0 0 0 0 0
0 0 0 0 0 0 0 0 0 0 0 0 0 0 0 0 0 0 0 0 0 0 0 0 0 0 0 0 0 0 0 0 0 0 0 0 0 0 0 0 0 0 0
0 0 0 0 0 0 0 0 0 0 0 0 0 0 0 0 0 0 0 0 0 0 0 0 0 0 0 0 0 0 0 0 0 0 0 0 0 0 0 0 0 0 0
0 0 0 0 0 0 0 0 0 0 0 0 0 0 0 0 0 0 0 0 0 0 0 0 0 0 0 0 0 0 0 0 0 0 0 0 0 0 0 0 0 0 0
0 0 0 0 0 0 0 0 0 0 0 0 0 0 0 0 0 0 0 0 0 0 0 0 0 0 0 0 0 0 0 0 0 0 0 0 0 0 0 0 0 0 0
0 0 0 0 0 0 0 0 0 0 0 0 0 0 0 0 0 0 0 0 0 0 0 0 0 0 0 0 0 0 0 0 0 0 0 0 0 0 0 0 0 0 0
0 0 0 0 0 0 0 0 0 0 0 0 0 0 0 0 0 0 0 0 0 0 0 0 0 0 0 0 0 0 0 0 0 0 0 0 0 0 0 0 0 0 0
0 0 0 0 0 0 0 0 0 0 0 0 0 0 0 0 0 0 0 0 0 0 0 0 0 0 0 0 0 0 0 0 0 0 0 0 0 0 0 0 0 0 0
0 0 0 0 0 0 0 0 0 0 0 0 0 0 0 0 0 0 0 0 0 0 0 0 0 0 0 0 0 0 0 0 0 0 0 0 0 0 0 0 0 0 0
0 0 0 0 0 0 0 0 0 0 0 0 0 0 0 0 0 0 0 0 0 0 0 0 0 0 0 0 0 0 0 0 0 0 0 0 0 0 0 0 0 0 0
0 0 0 0 0 0 0 0 0 0 0 0 0 0 0 0 0 0 0 0 0 0 0 0 0 0 0 0 0 0 0 0 0 0 0 0 0 0 0 0 0 0 0
0 0 0 0 0 0 0 0 0 0 0 0 0 0 0 0 0 0 0 0 0 0 0 0 0 0 0 0 0 0 0 0 0 0 0 0 0 0 0 0 0 0 0
0 0 0 0 0 0 0 0 0 0 0 0 0 0 0 0 0 0 0 0 0 0 0 0 0 0 0 0 0 0 0 0 0 0 0 0 0 0 0 0 0 0 0
0 0 0 0 0 0 0 0 0 0 0 0 0 0 0 0 0 0 0 0 0 0 0 0 0 0 0 0 0 0 0 0 0 0 0 0 0 0 0 0 0 0 0
0 0 0 0 0 0 0 0 0 0 0 0 0 0 0 0 0 0 0 0 0 0 0 0 0 0 0 0 0 0 0 0 0 0 0 0 0 0 0 0 0 0 0
0 0 0 0 0 0 0 0 0 0 0 0 0 0 0 0 0 0 0 0 0 0 0 0 0 0 0 0 0 0 0 0 0 0 0 0 0 0 0 0 0 0 0
0 0 0 0 0 0 0 0 0 0 0 0 0 0 0 0 0 0 0 0 0 0 0 0 0 0 0 0 0 0 0 0 0 0 0 0 0 0 0 0 0 0 0
0 0 0 0 0 0 0 0 0 0 0 0 0 0 0 0 0 0 0 0 0 0 0 0 0 0 0 0 0 0 0 0 0 0 0 0 0 0 0 0 0 0 0
0 0 0 0 0 0 0 0 0 0 0 0 0 0 0 0 0 0 0 0 0 0 0 0 0 0 0 0 0 0 0 0 0 0 0 0 0 0 0 0 0 0 0
0 0 0 0 0 0 0 0 0 0 0 0 0 0 0 0 0 0 0 0 0 0 0 0 0 0 0 0 0 0 0 0 0 0 0 0 0 0 0 0 0 0 0
Wind_Speed
7 6 8 10 12 14 16 16 16 15 13 10 10 9 9 8 8 8 10 11 11 11 10 8 8 9 8 9 9 7 7 6 3 3 5 7 10 11 10 10 11 12 13
6 5 6 7 10 13 15 16 16 16 15 12 10 8 8 8 9 8 10 12 12 12 10 11 9 9 9 10 10 9 5 5 6 6 4 5 6 10 11 11 11 13 11
8 5 4 5 7 9 11 11 14 14 15 14 9 6 6 5 6 8 8 10 11 11 11 12 10 10 9 9 11 11 10 8 8 8 6 6 7 5 4 9 10 11 10
4 3 2 2 3 5 6 9 10 11 12 13 11 12 10 10 10 8 7 8 10 11 11 11 11 11 10 10 11 11 10 9 8 7 9 9 4 4 5 4 6 10 12
1 2 2 2 2 0 2 5 7 8 9 11 11 11 10 9 6 4 4 5 6 8 9 10 10 10 9 11 10 10 11 10 10 7 6 8 8 7 7 10 8 7 8
4 4 5 5 5 5 4 4 5 4 5 7 8 9 9 8 6 4 4 4 3 4 7 8 8 9 8 10 10 10 12 11 12 9 7 7 7 7 9 11 10 10 9
4 5 6 7 7 8 7 7 7 6 4 4 4 4 5 5 5 4 4 3 3 3 5 5 7 7 7 8 8 9 10 11 12 12 10 9 10 8 8 10 11 11 9
5 6 7 7 8 8 8 9 9 8 7 6 5 4 2 1 0 0 1 2 2 3 4 5 6 7 7 7 7 7 9 8 11 12 12 10 10 9 9 9 9 12 12
7 7 7 8 8 9 9 9 10 10 9 8 7 6 5 4 3 3 2 1 2 3 4 4 5 6 6 7 7 7 8 8 9 10 11 11 9 9 9 9 9 10 16
7 8 8 8 8 9 9 10 10 10 9 9 8 6 6 5 4 3 3 3 3 3 4 4 5 6 6 6 7 7 8 9 9 8 10 11 9 9 8 9 10 11 13
8 7 7 8 8 8 9 9 9 9 9 8 8 8 7 6 5 5 5 4 4 4 4 5 5 6 6 6 7 8 8 10 10 10 11 12 11 10 9 9 9 10 11
8 8 8 8 8 8 8 9 8 9 8 7 7 7 7 6 6 6 5 5 4 4 4 5 5 5 6 6 7 8 9 10 11 11 11 13 10 12 10 9 11 10 11
9 8 7 7 7 7 7 8 8 7 7 7 7 7 7 7 6 6 5 5 5 5 5 5 5 5 6 6 7 8 9 10 11 11 12 12 11 12 10 11 11 9 9
9 8 7 7 6 6 6 7 7 6 6 6 7 7 7 6 6 6 6 6 6 5 6 6 5 6 6 6 6 8 9 10 10 10 11 12 11 12 11 10 11 10 11
10 9 8 7 6 6 6 6 6 6 6 6 7 7 6 6 6 7 7 6 6 6 6 6 6 6 6 5 7 8 9 10 11 11 11 12 12 13 12 10 11 10 10
11 9 8 7 6 5 5 5 6 6 5 6 7 6 6 6 6 7 7 6 6 6 6 6 7 7 6 9 12 10 9 9 10 11 11 11 10 12 15 17 17 15 13
13 11 9 8 6 5 4 5 5 4 5 5 5 5 6 6 6 6 6 7 7 7 7 7 7 8 9 12 13 12 10 11 10 11 10 9 8 10 11 13 15 15 17
13 11 9 8 6 5 5 4 4 4 4 4 4 5 6 6 6 7 7 7 7 7 7 8 8 9 10 13 14 14 11 10 10 10 11 11 11 9 11 11 12 12 11
11 10 8 8 7 5 4 4 4 4 4 4 4 5 6 6 7 7 8 8 8 8 8 8 9 10 11 13 14 14 9 9 11 10 10 10 12 13 14 12 12 12 10
10 9 8 8 6 5 3 4 3 3 4 4 5 6 6 6 7 8 8 8 8 9 9 9 9 9 10 12 14 14 7 9 9 8 8 10 12 14 15 10 10 12 11
10 10 9 7 5 4 3 3 3 3 4 5 6 6 6 7 8 8 7 8 8 9 9 10 9 8 9 11 13 13 7 8 9 8 8 8 12 15 15 13 9 12 12
10 9 8 6 5 4 3 3 3 4 5 6 6 7 7 7 6 7 8 7 8 9 9 9 9 7 6 7 11 13 12 12 9 9 8 8 14 15 14 11 10 13 10
9 7 7 7 5 4 4 2 3 5 5 6 6 7 8 7 7 7 8 8 7 7 7 7 8 8 6 7 11 12 13 13 8 7 11 13 14 13 9 9 10 7 4
7 5 6 5 3 3 3 3 4 5 5 6 7 7 7 8 7 6 6 6 7 7 7 8 8 8 8 7 6 6 7 8 7 6 7 10 10 7 6 6 5 4 4
5 4 4 3 2 2 2 3 4 4 5 6 6 6 6 7 8 7 7 8 8 8 9 8 8 9 9 9 14 11 8 6 6 6 5 4 4 4 4 4 4 4 4
5 4 4 2 1 1 2 2 3 3 4 5 5 5 6 6 7 8 8 10 11 14 15 14 12 9 12 16 16 14 12 10 8 5 3 3 3 4 4 4 4 4 4
Wind_Direction
254 243 232 223 220 219 217 216 214 211 206 205 207 210 215 213 213 214 212 210 210 208 208 211 208 202 209 213 210 210 216 223 204 224 254 249 239 242 242 240 241 240 238
250 243 238 221 216 217 216 217 216 212 209 210 211 214 218 217 216 213 215 214 213 210 209 213 212 209 215 218 212 205 209 212 192 208 233 266 254 232 232 234 236 242 240
270 266 249 233 220 220 218 216 217 215 213 213 213 207 211 214 211 217 218 216 214 214 213 215 216 214 214 220 217 210 212 221 211 215 215 233 259 278 229 232 234 237 238
270 277 273 244 225 228 222 220 217 216 214 211 212 212 215 221 225 224 221 215 212 216 218 220 220 220 218 223 221 215 218 224 223 216 230 241 270 272 282 244 239 241 240
44 59 47 40 39 63 190 198 201 207 210 210 213 217 224 231 235 229 224 222 217 220 224 225 226 226 225 228 226 219 219 221 228 218 214 229 240 241 255 273 267 246 239
82 76 69 69 67 73 92 120 142 158 183 197 207 215 222 226 226 224 227 231 233 234 235 236 236 235 233 231 229 226 223 225 230 231 221 215 220 222 231 256 268 269 262
94 87 80 75 71 72 79 92 101 100 112 141 171 197 214 222 230 233 236 243 246 249 254 251 252 250 247 244 238 233 231 228 230 233 233 230 235 239 240 256 271 275 273
99 88 81 79 76 73 76 84 87 85 84 88 89 86 96 133 156 225 262 262 271 278 289 280 275 273 270 265 256 248 243 238 236 239 239 240 239 236 234 243 264 278 277
106 95 87 81 78 74 71 77 83 81 77 79 80 75 70 71 69 56 35 2 338 324 310 298 289 285 283 279 275 264 260 253 248 248 245 245 246 241 238 237 239 259 281
113 101 90 83 77 76 77 75 76 79 77 76 74 71 67 63 60 55 41 17 356 343 329 318 306 298 292 287 279 274 271 267 263 259 256 253 252 249 242 239 239 239 258
124 110 98 89 85 82 79 77 75 76 73 72 74 74 67 62 59 51 35 16 2 352 340 326 315 308 303 298 288 281 282 277 274 271 266 265 261 258 253 247 244 244 246
123 114 107 99 90 82 78 75 72 69 68 70 71 69 64 58 52 43 28 14 3 355 341 328 318 311 306 301 294 289 286 281 279 277 274 272 271 266 263 259 255 254 249
133 125 115 104 94 87 80 75 68 65 65 68 69 62 53 46 40 29 17 7 358 350 341 329 320 313 308 302 296 291 286 282 280 280 278 278 276 272 270 268 267 266 263
145 137 126 113 101 91 83 77 69 61 62 66 63 54 40 31 24 15 8 2 354 348 341 331 321 314 308 300 300 296 292 288 285 283 281 280 278 277 277 274 271 271 270
158 151 138 126 114 99 87 77 70 58 54 59 53 40 26 18 12 5 358 351 346 341 334 326 322 317 309 306 308 303 296 293 290 286 282 280 278 277 276 275 277 276 273
166 156 145 134 122 108 93 80 65 52 47 51 43 25 14 8 2 352 344 338 335 331 326 321 317 313 306 307 307 304 298 292 288 288 287 284 279 277 275 273 272 271 273
167 162 154 144 132 116 99 84 70 59 55 51 37 18 4 355 347 337 332 328 325 322 317 313 311 306 304 308 307 303 297 290 287 288 289 288 285 281 282 281 279 275 270
165 159 151 140 127 113 97 88 78 66 57 46 27 9 355 344 335 329 324 322 318 313 308 307 306 303 301 306 306 306 296 289 286 286 288 290 292 289 289 288 283 277 273
154 148 141 133 124 112 101 95 78 64 51 30 9 355 345 334 328 323 320 318 313 307 303 299 298 297 299 304 306 307 299 291 292 291 289 289 290 291 291 288 286 286 282
137 134 130 123 115 102 95 90 75 55 32 3 345 337 331 322 315 312 311 309 305 299 300 295 293 291 294 300 305 306 296 294 296 295 291 286 288 292 295 290 288 290 294
133 130 125 115 104 94 93 88 68 37 3 342 329 325 321 312 304 304 303 302 300 299 297 295 293 290 289 298 303 303 297 293 296 297 299 299 301 300 300 297 289 290 298
131 130 124 113 96 78 75 73 46 10 350 335 325 319 314 309 306 304 301 298 297 296 297 298 299 295 293 295 302 303 300 298 293 294 298 301 305 305 306 304 300 302 302
129 124 122 115 94 65 55 53 13 355 341 327 317 311 309 304 301 300 300 300 295 292 297 298 298 301 303 301 303 303 301 300 295 292 298 303 306 308 310 316 319 317 312
123 121 122 120 108 73 54 30 357 347 328 315 313 311 310 309 307 299 292 291 291 289 289 291 294 299 300 301 304 301 301 297 294 295 300 305 310 313 319 324 333 336 334
120 116 119 117 102 60 31 12 355 342 322 310 307 308 306 306 305 298 288 287 278 274 283 286 289 293 297 302 305 304 300 298 296 300 300 306 316 327 336 340 345 348 350
127 122 116 116 89 6 339 349 348 337 318 309 310 308 305 303 300 301 298 284 281 287 285 284 287 288 293 303 304 306 307 306 302 299 299 311 321 327 334 338 343 353 357